Time,TemperatureF,DewpointF,PressureIn,WindDirection,WindDirectionDegrees,WindSpeedMPH,WindSpeedGustMPH,Humidity,HourlyPrecipIn,Conditions,Clouds,dailyrainin,SoftwareType,DateUTC
2013-01-21 00:04:00,16.0,10.0,30.01,WSW,257,4.0,-999.0,76,-99.99,,,-99.99,,2013-01-21 05:04:00,
2013-01-21 00:12:00,16.0,10.0,30.01,WSW,257,4.0,-999.0,76,-99.99,,,-99.99,,2013-01-21 05:12:00,
2013-01-21 00:22:00,16.0,9.0,30.01,NNW,338,6.0,-999.0,72,-99.99,,,-99.99,,2013-01-21 05:22:00,
2013-01-21 00:34:00,16.0,9.0,30.00,WSW,237,4.0,-999.0,75,-99.99,,,-99.99,,2013-01-21 05:34:00,
2013-01-21 00:42:00,16.0,9.0,30.00,WSW,237,4.0,-999.0,75,-99.99,,,-99.99,,2013-01-21 05:42:00,
2013-01-21 00:52:00,16.0,9.0,30.01,WSW,238,4.0,-999.0,74,-99.99,,,-99.99,,2013-01-21 05:52:00,
2013-01-21 01:03:00,16.0,9.0,30.01,WSW,238,4.0,-999.0,74,-99.99,,,-99.99,,2013-01-21 06:03:00,
2013-01-21 01:13:00,16.0,9.0,30.01,WSW,238,4.0,-999.0,74,-99.99,,,-99.99,,2013-01-21 06:13:00,
2013-01-21 01:23:00,16.0,6.0,30.01,West,271,7.0,-999.0,63,-99.99,,,-99.99,,2013-01-21 06:23:00,
2013-01-21 01:33:00,15.0,5.0,30.01,WNW,287,5.0,-999.0,63,-99.99,,,-99.99,,2013-01-21 06:33:00,
2013-01-21 01:43:00,15.0,5.0,30.01,WNW,287,5.0,-999.0,63,-99.99,,,-99.99,,2013-01-21 06:43:00,
2013-01-21 01:52:00,15.0,5.0,30.01,WSW,247,3.0,-999.0,64,-99.99,,,-99.99,,2013-01-21 06:52:00,
2013-01-21 02:03:00,15.0,5.0,30.02,WSW,255,2.0,-999.0,64,-99.99,,,-99.99,,2013-01-21 07:03:00,
2013-01-21 02:13:00,15.0,5.0,30.02,WSW,255,2.0,-999.0,64,-99.99,,,-99.99,,2013-01-21 07:13:00,
2013-01-21 02:23:00,14.0,4.0,30.02,WSW,255,3.0,-999.0,63,-99.99,,,-99.99,,2013-01-21 07:23:00,
2013-01-21 02:33:00,14.0,3.0,30.02,WSW,252,3.0,-999.0,62,-99.99,,,-99.99,,2013-01-21 07:33:00,
2013-01-21 02:42:00,14.0,3.0,30.02,WSW,252,3.0,-999.0,62,-99.99,,,-99.99,,2013-01-21 07:42:00,
2013-01-21 02:52:00,14.0,3.0,30.03,West,259,2.0,-999.0,62,-99.99,,,-99.99,,2013-01-21 07:52:00,
2013-01-21 03:03:00,14.0,3.0,30.03,West,265,3.0,-999.0,62,-99.99,,,-99.99,,2013-01-21 08:03:00,
2013-01-21 03:14:00,14.0,3.0,30.03,West,265,3.0,-999.0,62,-99.99,,,-99.99,,2013-01-21 08:14:00,
2013-01-21 03:23:00,14.0,4.0,30.03,SW,214,2.0,-999.0,63,-99.99,,,-99.99,,2013-01-21 08:23:00,
2013-01-21 03:33:00,14.0,4.0,30.03,SW,222,2.0,-999.0,63,-99.99,,,-99.99,,2013-01-21 08:33:00,
2013-01-21 03:42:00,14.0,4.0,30.03,SW,222,2.0,-999.0,63,-99.99,,,-99.99,,2013-01-21 08:42:00,
2013-01-21 03:53:00,13.0,3.0,30.03,SW,236,1.0,-999.0,63,-99.99,,,-99.99,,2013-01-21 08:53:00,
2013-01-21 04:03:00,13.0,3.0,30.04,WSW,238,1.0,-999.0,64,-99.99,,,-99.99,,2013-01-21 09:03:00,
2013-01-21 04:12:00,13.0,3.0,30.04,WSW,238,1.0,-999.0,64,-99.99,,,-99.99,,2013-01-21 09:12:00,
2013-01-21 04:23:00,13.0,3.0,30.04,SW,232,1.0,-999.0,65,-99.99,,,-99.99,,2013-01-21 09:23:00,
2013-01-21 04:33:00,13.0,3.0,30.05,SW,233,1.0,-999.0,65,-99.99,,,-99.99,,2013-01-21 09:33:00,
2013-01-21 04:42:00,13.0,3.0,30.05,SW,233,1.0,-999.0,65,-99.99,,,-99.99,,2013-01-21 09:42:00,
2013-01-21 04:53:00,13.0,3.0,30.05,WSW,255,1.0,-999.0,65,-99.99,,,-99.99,,2013-01-21 09:53:00,
2013-01-21 05:03:00,13.0,3.0,30.05,SW,217,1.0,-999.0,65,-99.99,,,-99.99,,2013-01-21 10:03:00,
2013-01-21 05:12:00,13.0,3.0,30.05,SW,217,1.0,-999.0,65,-99.99,,,-99.99,,2013-01-21 10:12:00,
2013-01-21 05:22:00,13.0,4.0,30.05,WSW,241,1.0,-999.0,67,-99.99,,,-99.99,,2013-01-21 10:22:00,
2013-01-21 05:33:00,13.0,4.0,30.05,WSW,241,1.0,-999.0,67,-99.99,,,-99.99,,2013-01-21 10:33:00,
2013-01-21 05:43:00,13.0,4.0,30.05,WSW,241,1.0,-999.0,67,-99.99,,,-99.99,,2013-01-21 10:43:00,
2013-01-21 05:52:00,13.0,5.0,30.05,SSW,211,1.0,-999.0,69,-99.99,,,-99.99,,2013-01-21 10:52:00,
2013-01-21 06:03:00,13.0,5.0,30.05,SSW,211,1.0,-999.0,70,-99.99,,,-99.99,,2013-01-21 11:03:00,
2013-01-21 06:13:00,13.0,5.0,30.05,SSW,211,1.0,-999.0,70,-99.99,,,-99.99,,2013-01-21 11:13:00,
2013-01-21 06:23:00,13.0,5.0,30.05,SSW,206,1.0,-999.0,71,-99.99,,,-99.99,,2013-01-21 11:23:00,
2013-01-21 06:33:00,12.0,4.0,30.05,South,185,1.0,-999.0,71,-99.99,,,-99.99,,2013-01-21 11:33:00,
2013-01-21 06:43:00,12.0,4.0,30.05,South,185,1.0,-999.0,71,-99.99,,,-99.99,,2013-01-21 11:43:00,
2013-01-21 06:53:00,12.0,4.0,30.06,SSW,211,1.0,-999.0,71,-99.99,,,-99.99,,2013-01-21 11:53:00,
2013-01-21 07:03:00,12.0,4.0,30.06,SSW,211,1.0,-999.0,70,-99.99,,,-99.99,,2013-01-21 12:03:00,
2013-01-21 07:12:00,12.0,4.0,30.06,SSW,211,1.0,-999.0,70,-99.99,,,-99.99,,2013-01-21 12:12:00,
2013-01-21 07:22:00,12.0,4.0,30.05,SSW,211,0.0,-999.0,70,-99.99,,,-99.99,,2013-01-21 12:22:00,
2013-01-21 07:33:00,11.0,3.0,30.05,SSW,211,0.0,-999.0,70,-99.99,,,-99.99,,2013-01-21 12:33:00,
2013-01-21 07:42:00,11.0,3.0,30.05,SSW,211,0.0,-999.0,70,-99.99,,,-99.99,,2013-01-21 12:42:00,
2013-01-21 07:52:00,11.0,3.0,30.05,SSW,211,1.0,-999.0,70,-99.99,,,-99.99,,2013-01-21 12:52:00,
2013-01-21 08:03:00,11.0,3.0,30.06,SSW,211,0.0,-999.0,70,-99.99,,,-99.99,,2013-01-21 13:03:00,
2013-01-21 08:13:00,11.0,3.0,30.06,SSW,211,0.0,-999.0,70,-99.99,,,-99.99,,2013-01-21 13:13:00,
2013-01-21 08:23:00,12.0,4.0,30.07,SSW,211,2.0,-999.0,70,-99.99,,,-99.99,,2013-01-21 13:23:00,
2013-01-21 08:33:00,13.0,5.0,30.07,SSW,196,2.0,-999.0,69,-99.99,,,-99.99,,2013-01-21 13:33:00,
2013-01-21 08:43:00,13.0,5.0,30.07,SSW,196,2.0,-999.0,69,-99.99,,,-99.99,,2013-01-21 13:43:00,
2013-01-21 08:53:00,13.0,4.0,30.07,SSW,197,1.0,-999.0,68,-99.99,,,-99.99,,2013-01-21 13:53:00,
2013-01-21 09:04:00,14.0,5.0,30.07,SSW,196,1.0,-999.0,68,-99.99,,,-99.99,,2013-01-21 14:04:00,
2013-01-21 09:12:00,14.0,5.0,30.07,SSW,196,1.0,-999.0,68,-99.99,,,-99.99,,2013-01-21 14:12:00,
2013-01-21 09:23:00,14.0,5.0,30.07,SSW,194,2.0,-999.0,66,-99.99,,,-99.99,,2013-01-21 14:23:00,
2013-01-21 09:33:00,15.0,5.0,30.07,SSW,200,2.0,-999.0,65,-99.99,,,-99.99,,2013-01-21 14:33:00,
2013-01-21 09:43:00,15.0,5.0,30.07,SSW,200,2.0,-999.0,65,-99.99,,,-99.99,,2013-01-21 14:43:00,
2013-01-21 09:53:00,16.0,6.0,30.06,SW,223,1.0,-999.0,64,-99.99,,,-99.99,,2013-01-21 14:53:00,
2013-01-21 10:03:00,17.0,6.0,30.06,SW,222,1.0,-999.0,61,-99.99,,,-99.99,,2013-01-21 15:03:00,
2013-01-21 10:13:00,17.0,6.0,30.06,SW,222,1.0,-999.0,61,-99.99,,,-99.99,,2013-01-21 15:13:00,
2013-01-21 10:23:00,17.0,6.0,30.06,WSW,247,3.0,-999.0,60,-99.99,,,-99.99,,2013-01-21 15:23:00,
2013-01-21 10:33:00,17.0,5.0,30.06,WSW,254,3.0,-999.0,59,-99.99,,,-99.99,,2013-01-21 15:33:00,
2013-01-21 10:43:00,17.0,5.0,30.06,WSW,254,3.0,-999.0,59,-99.99,,,-99.99,,2013-01-21 15:43:00,
2013-01-21 10:53:00,18.0,6.0,30.06,West,279,2.0,-999.0,60,-99.99,,,-99.99,,2013-01-21 15:53:00,
2013-01-21 11:04:00,18.0,6.0,30.06,SW,231,1.0,-999.0,59,-99.99,,,-99.99,,2013-01-21 16:04:00,
2013-01-21 11:13:00,18.0,6.0,30.06,SW,231,1.0,-999.0,59,-99.99,,,-99.99,,2013-01-21 16:13:00,
2013-01-21 11:23:00,19.0,7.0,30.04,SSW,198,2.0,-999.0,59,-99.99,,,-99.99,,2013-01-21 16:23:00,
2013-01-21 11:33:00,19.0,7.0,30.03,South,170,2.0,-999.0,58,-99.99,,,-99.99,,2013-01-21 16:33:00,
2013-01-21 11:43:00,19.0,7.0,30.03,South,170,2.0,-999.0,58,-99.99,,,-99.99,,2013-01-21 16:43:00,
2013-01-21 11:53:00,19.0,7.0,30.02,South,176,2.0,-999.0,58,-99.99,,,-99.99,,2013-01-21 16:53:00,
2013-01-21 12:03:00,19.0,7.0,30.01,WSW,241,3.0,-999.0,59,-99.99,,,-99.99,,2013-01-21 17:03:00,
2013-01-21 12:12:00,19.0,7.0,30.01,WSW,241,3.0,-999.0,59,-99.99,,,-99.99,,2013-01-21 17:12:00,
2013-01-21 12:23:00,20.0,8.0,30.00,West,267,2.0,-999.0,59,-99.99,,,-99.99,,2013-01-21 17:23:00,
2013-01-21 12:33:00,20.0,8.0,29.98,South,190,2.0,-999.0,58,-99.99,,,-99.99,,2013-01-21 17:33:00,
2013-01-21 12:43:00,20.0,8.0,29.98,South,190,2.0,-999.0,58,-99.99,,,-99.99,,2013-01-21 17:43:00,
2013-01-21 12:53:00,20.0,8.0,29.98,SSW,201,4.0,-999.0,60,-99.99,,,-99.99,,2013-01-21 17:53:00,
2013-01-21 13:03:00,20.0,9.0,29.97,South,171,3.0,-999.0,61,-99.99,,,-99.99,,2013-01-21 18:03:00,
2013-01-21 13:12:00,20.0,9.0,29.97,South,171,3.0,-999.0,61,-99.99,,,-99.99,,2013-01-21 18:12:00,
2013-01-21 13:23:00,20.0,9.0,29.96,South,188,4.0,-999.0,61,-99.99,,,-99.99,,2013-01-21 18:23:00,
2013-01-21 13:33:00,20.0,9.0,29.96,WSW,237,4.0,-999.0,62,-99.99,,,-99.99,,2013-01-21 18:33:00,
2013-01-21 13:43:00,20.0,9.0,29.96,WSW,237,4.0,-999.0,62,-99.99,,,-99.99,,2013-01-21 18:43:00,
2013-01-21 13:52:00,20.0,10.0,29.95,SSE,158,6.0,-999.0,64,-99.99,,,-99.99,,2013-01-21 18:52:00,
2013-01-21 14:03:00,20.0,10.0,29.95,SSW,201,5.0,-999.0,65,-99.99,,,-99.99,,2013-01-21 19:03:00,
2013-01-21 14:12:00,20.0,10.0,29.95,SSW,201,5.0,-999.0,65,-99.99,,,-99.99,,2013-01-21 19:12:00,
2013-01-21 14:22:00,20.0,10.0,29.94,SSW,208,3.0,-999.0,65,-99.99,,,-99.99,,2013-01-21 19:22:00,
2013-01-21 14:33:00,20.0,10.0,29.93,South,176,4.0,-999.0,64,-99.99,,,-99.99,,2013-01-21 19:33:00,
2013-01-21 14:43:00,20.0,10.0,29.93,South,176,4.0,-999.0,64,-99.99,,,-99.99,,2013-01-21 19:43:00,
2013-01-21 14:53:00,20.0,11.0,29.93,SSW,201,5.0,-999.0,67,-99.99,,,-99.99,,2013-01-21 19:53:00,
2013-01-21 15:04:00,19.0,11.0,29.93,SSW,192,3.0,-999.0,69,-99.99,,,-99.99,,2013-01-21 20:04:00,
2013-01-21 15:12:00,19.0,11.0,29.93,SSW,192,3.0,-999.0,69,-99.99,,,-99.99,,2013-01-21 20:12:00,
2013-01-21 15:23:00,19.0,12.0,29.94,SSW,202,3.0,-999.0,74,-99.99,,,-99.99,,2013-01-21 20:23:00,
2013-01-21 15:33:00,19.0,13.0,29.93,South,182,2.0,-999.0,78,-99.99,,,-99.99,,2013-01-21 20:33:00,
2013-01-21 15:43:00,19.0,13.0,29.93,South,182,2.0,-999.0,78,-99.99,,,-99.99,,2013-01-21 20:43:00,
2013-01-21 15:53:00,19.0,14.0,29.92,South,182,1.0,-999.0,80,-99.99,,,-99.99,,2013-01-21 20:53:00,
2013-01-21 16:04:00,19.0,14.0,29.91,SSE,156,2.0,-999.0,80,-99.99,,,-99.99,,2013-01-21 21:04:00,
2013-01-21 16:12:00,19.0,14.0,29.91,SSE,156,2.0,-999.0,80,-99.99,,,-99.99,,2013-01-21 21:12:00,
2013-01-21 16:23:00,19.0,14.0,29.90,SSW,192,1.0,-999.0,81,-99.99,,,-99.99,,2013-01-21 21:23:00,
2013-01-21 16:33:00,19.0,14.0,29.90,SSW,202,3.0,-999.0,80,-99.99,,,-99.99,,2013-01-21 21:33:00,
2013-01-21 16:43:00,19.0,14.0,29.90,SSW,202,3.0,-999.0,80,-99.99,,,-99.99,,2013-01-21 21:43:00,
2013-01-21 16:53:00,18.0,13.0,29.90,SSW,195,4.0,-999.0,80,-99.99,,,-99.99,,2013-01-21 21:53:00,
2013-01-21 17:03:00,18.0,13.0,29.90,SW,232,1.0,-999.0,81,-99.99,,,-99.99,,2013-01-21 22:03:00,
2013-01-21 17:13:00,18.0,13.0,29.90,SW,232,1.0,-999.0,81,-99.99,,,-99.99,,2013-01-21 22:13:00,
2013-01-21 17:23:00,18.0,13.0,29.90,SSW,192,2.0,-999.0,81,-99.99,,,-99.99,,2013-01-21 22:23:00,
2013-01-21 17:33:00,18.0,13.0,29.91,SW,232,2.0,-999.0,82,-99.99,,,-99.99,,2013-01-21 22:33:00,
2013-01-21 17:43:00,18.0,13.0,29.91,SW,232,2.0,-999.0,82,-99.99,,,-99.99,,2013-01-21 22:43:00,
2013-01-21 17:52:00,18.0,13.0,29.91,South,188,2.0,-999.0,82,-99.99,,,-99.99,,2013-01-21 22:52:00,
2013-01-21 18:03:00,18.0,14.0,29.91,West,263,2.0,-999.0,83,-99.99,,,-99.99,,2013-01-21 23:03:00,
2013-01-21 18:13:00,18.0,14.0,29.91,West,263,2.0,-999.0,83,-99.99,,,-99.99,,2013-01-21 23:13:00,
2013-01-21 18:23:00,18.0,14.0,29.91,South,178,2.0,-999.0,83,-99.99,,,-99.99,,2013-01-21 23:23:00,
2013-01-21 18:33:00,18.0,14.0,29.92,South,175,3.0,-999.0,84,-99.99,,,-99.99,,2013-01-21 23:33:00,
2013-01-21 18:42:00,18.0,14.0,29.92,South,175,3.0,-999.0,84,-99.99,,,-99.99,,2013-01-21 23:42:00,
2013-01-21 18:53:00,18.0,14.0,29.92,WSW,248,3.0,-999.0,84,-99.99,,,-99.99,,2013-01-21 23:53:00,
2013-01-21 19:03:00,18.0,14.0,29.92,SW,222,2.0,-999.0,85,-99.99,,,-99.99,,2013-01-22 00:03:00,
2013-01-21 19:12:00,18.0,14.0,29.92,SW,222,2.0,-999.0,85,-99.99,,,-99.99,,2013-01-22 00:12:00,
2013-01-21 19:23:00,18.0,14.0,29.92,SW,218,2.0,-999.0,85,-99.99,,,-99.99,,2013-01-22 00:23:00,
2013-01-21 19:33:00,18.0,14.0,29.92,South,176,2.0,-999.0,85,-99.99,,,-99.99,,2013-01-22 00:33:00,
2013-01-21 19:43:00,18.0,14.0,29.92,South,176,2.0,-999.0,85,-99.99,,,-99.99,,2013-01-22 00:43:00,
2013-01-21 19:53:00,18.0,14.0,29.92,SW,227,2.0,-999.0,84,-99.99,,,-99.99,,2013-01-22 00:53:00,
2013-01-21 20:02:00,17.0,13.0,29.91,SSW,204,2.0,-999.0,84,-99.99,,,-99.99,,2013-01-22 01:02:00,
2013-01-21 20:12:00,17.0,13.0,29.91,SSW,204,2.0,-999.0,84,-99.99,,,-99.99,,2013-01-22 01:12:00,
2013-01-21 20:23:00,17.0,13.0,29.91,SSW,204,2.0,-999.0,84,-99.99,,,-99.99,,2013-01-22 01:23:00,
2013-01-21 20:33:00,17.0,12.0,29.91,WSW,248,2.0,-999.0,82,-99.99,,,-99.99,,2013-01-22 01:33:00,
2013-01-21 20:43:00,17.0,12.0,29.91,WSW,248,2.0,-999.0,82,-99.99,,,-99.99,,2013-01-22 01:43:00,
2013-01-21 20:53:00,18.0,13.0,29.90,South,172,4.0,-999.0,80,-99.99,,,-99.99,,2013-01-22 01:53:00,
2013-01-21 21:03:00,18.0,13.0,29.90,South,172,4.0,-999.0,80,-99.99,,,-99.99,,2013-01-22 02:03:00,
2013-01-21 21:12:00,18.0,13.0,29.90,South,172,4.0,-999.0,80,-99.99,,,-99.99,,2013-01-22 02:12:00,
2013-01-21 21:23:00,18.0,13.0,29.89,West,269,3.0,-999.0,80,-99.99,,,-99.99,,2013-01-22 02:23:00,
2013-01-21 21:33:00,17.0,12.0,29.89,SSW,200,3.0,-999.0,79,-99.99,,,-99.99,,2013-01-22 02:33:00,
2013-01-21 21:43:00,17.0,12.0,29.89,SSW,200,3.0,-999.0,79,-99.99,,,-99.99,,2013-01-22 02:43:00,
2013-01-21 21:53:00,17.0,12.0,29.88,SW,235,3.0,-999.0,80,-99.99,,,-99.99,,2013-01-22 02:53:00,
2013-01-21 22:03:00,17.0,12.0,29.88,WSW,237,3.0,-999.0,80,-99.99,,,-99.99,,2013-01-22 03:03:00,
2013-01-21 22:12:00,17.0,12.0,29.88,WSW,237,3.0,-999.0,80,-99.99,,,-99.99,,2013-01-22 03:12:00,
2013-01-21 22:22:00,17.0,12.0,29.88,West,277,4.0,-999.0,80,-99.99,,,-99.99,,2013-01-22 03:22:00,
2013-01-21 22:33:00,17.0,13.0,29.88,SW,234,4.0,-999.0,83,-99.99,,,-99.99,,2013-01-22 03:33:00,
2013-01-21 22:42:00,17.0,13.0,29.88,SW,234,4.0,-999.0,83,-99.99,,,-99.99,,2013-01-22 03:42:00,
2013-01-21 22:52:00,17.0,13.0,29.88,SW,234,4.0,-999.0,83,-99.99,,,-99.99,,2013-01-22 03:52:00,
2013-01-21 23:03:00,16.0,12.0,29.88,WNW,288,2.0,-999.0,85,-99.99,,,-99.99,,2013-01-22 04:03:00,
2013-01-21 23:12:00,16.0,12.0,29.88,WNW,288,2.0,-999.0,85,-99.99,,,-99.99,,2013-01-22 04:12:00,
2013-01-21 23:22:00,15.0,11.0,29.87,NNW,328,2.0,-999.0,84,-99.99,,,-99.99,,2013-01-22 04:22:00,
2013-01-21 23:33:00,14.0,10.0,29.86,NW,309,0.0,-999.0,84,-99.99,,,-99.99,,2013-01-22 04:33:00,
2013-01-21 23:42:00,14.0,10.0,29.86,NW,309,0.0,-999.0,84,-99.99,,,-99.99,,2013-01-22 04:42:00,
2013-01-21 23:52:00,13.0,9.0,29.86,WNW,293,0.0,-999.0,83,-99.99,,,-99.99,,2013-01-22 04:52:00,